TimeEST,TemperatureF,Dew PointF,Humidity,Sea Level PressureIn,VisibilityMPH,Wind Direction,Wind SpeedMPH,Gust SpeedMPH,PrecipitationIn,Events,Conditions,WindDirDegrees,DateUTC
12:53 AM,17.1,8.1,68,30.34,10.0,SW,6.9,-,N/A,,Clear,230,2013-12-11 05:53:00
1:53 AM,15.1,8.1,74,30.34,10.0,SW,5.8,-,N/A,,Clear,220,2013-12-11 06:53:00
2:53 AM,15.1,8.1,74,30.35,-9999.0,SW,5.8,-,N/A,,Unknown,230,2013-12-11 07:53:00
3:53 AM,15.1,9.0,77,30.36,9.0,SW,5.8,-,N/A,,Partly Cloudy,230,2013-12-11 08:53:00
4:53 AM,17.1,9.0,71,30.34,10.0,WSW,5.8,-,N/A,,Overcast,240,2013-12-11 09:53:00
5:53 AM,17.1,10.0,74,30.32,10.0,SSW,3.5,-,N/A,,Mostly Cloudy,200,2013-12-11 10:53:00
6:53 AM,18.0,10.9,74,30.33,9.0,South,3.5,-,N/A,,Overcast,190,2013-12-11 11:53:00
7:53 AM,18.0,12.0,78,30.35,7.0,SSW,5.8,-,N/A,,Overcast,200,2013-12-11 12:53:00
8:53 AM,18.0,12.0,78,30.34,7.0,South,8.1,-,N/A,,Scattered Clouds,180,2013-12-11 13:53:00
9:53 AM,19.9,15.1,81,30.35,7.0,SSW,6.9,-,N/A,,Clear,200,2013-12-11 14:53:00
10:53 AM,21.9,17.1,82,30.34,7.0,SW,9.2,-,N/A,,Clear,220,2013-12-11 15:53:00
11:53 AM,25.0,18.0,75,30.32,8.0,WSW,11.5,-,N/A,,Clear,240,2013-12-11 16:53:00
12:53 PM,25.0,18.0,75,30.31,9.0,WNW,15.0,-,N/A,,Mostly Cloudy,300,2013-12-11 17:53:00
1:00 PM,24.1,18.0,77,30.28,8.0,WNW,13.8,-,N/A,,Mostly Cloudy,290,2013-12-11 18:00:00
1:53 PM,24.1,18.0,77,30.32,7.0,NW,11.5,-,N/A,,Overcast,320,2013-12-11 18:53:00
2:30 PM,25.0,19.0,78,30.29,2.0,NNW,11.5,-,0.00,Snow,Light Snow,330,2013-12-11 19:30:00
2:37 PM,24.1,19.0,81,30.29,1.0,NNW,12.7,-,0.00,Snow,Light Snow,330,2013-12-11 19:37:00
2:53 PM,24.1,18.0,77,30.34,3.0,NW,13.8,-,0.00,Snow,Light Snow,320,2013-12-11 19:53:00
3:19 PM,23.0,17.1,78,30.32,5.0,NW,13.8,-,0.00,Snow,Light Snow,320,2013-12-11 20:19:00
3:27 PM,23.0,18.0,81,30.32,2.5,NW,12.7,-,0.00,Snow,Light Snow,320,2013-12-11 20:27:00
3:40 PM,23.0,17.1,78,30.33,1.5,NW,11.5,-,0.00,Snow,Light Snow,310,2013-12-11 20:40:00
3:53 PM,23.0,17.1,78,30.37,1.5,WNW,12.7,-,0.00,Snow,Light Snow,300,2013-12-11 20:53:00
4:01 PM,21.9,17.1,82,30.34,1.2,NW,11.5,-,0.00,Snow,Light Snow,310,2013-12-11 21:01:00
4:14 PM,21.9,18.0,85,30.35,1.2,WNW,11.5,-,0.00,Snow,Light Snow,300,2013-12-11 21:14:00
4:40 PM,21.9,17.1,82,30.36,2.0,WNW,13.8,-,0.00,Snow,Light Snow,300,2013-12-11 21:40:00
4:53 PM,21.9,16.0,78,30.40,2.0,NW,13.8,-,0.00,Snow,Light Snow,310,2013-12-11 21:53:00
5:06 PM,21.0,15.1,78,30.37,4.0,NW,16.1,-,0.00,Snow,Light Snow,310,2013-12-11 22:06:00
5:53 PM,19.9,12.0,71,30.44,10.0,WNW,12.7,-,0.00,,Overcast,290,2013-12-11 22:53:00
6:10 PM,19.9,10.9,68,30.40,10.0,North,-9999.0,-,N/A,,Mostly Cloudy,0,2013-12-11 23:10:00
6:53 PM,19.0,12.0,74,30.46,9.0,NW,13.8,-,0.00,,Overcast,310,2013-12-11 23:53:00
7:53 PM,18.0,10.0,71,30.48,10.0,WNW,10.4,-,0.00,,Mostly Cloudy,300,2013-12-12 00:53:00
8:53 PM,16.0,7.0,68,30.51,10.0,WNW,15.0,-,N/A,,Mostly Cloudy,300,2013-12-12 01:53:00
9:53 PM,12.9,6.1,74,30.51,10.0,WNW,8.1,-,N/A,,Scattered Clouds,290,2013-12-12 02:53:00
10:53 PM,10.9,3.9,73,30.53,10.0,WNW,8.1,-,N/A,,Clear,290,2013-12-12 03:53:00
11:53 PM,8.1,3.0,80,30.53,10.0,West,6.9,-,N/A,,Partly Cloudy,280,2013-12-12 04:53:00